Date String (YYYY-MM-DD hh:mm:ss) UTC,Instrument flags,Ambient pressure (hPa),Sample flow (lpm),Bypass flow (lpm),Sample temperature (°C),Ambient temperature (°C),ASC tube jacket temperature (°C),LED temperature (°C),Box temperature (°C),Sample RH (%),Span deviation,Mass concentration (μg/m³),Mass concentration (μg/m³),Mass concentration (μg/m³)
DateTimeUTC,F1_M11,P_M11,Q1_M11,Q2_M11,T1_M11,T2_M11,T3_M11,T4_M11,T5_M11,U1_M11,ZSPAN_M11,X2_M11,X0_M11,X1_M11
2023-01-27 18:00:00,,0818.8,5.00,0.00,22.4,21.1,00.0,31.2,24.2,11.2,0000.0,0001.09,0004.34,0000.82
2023-01-27 18:01:00,,0818.8,5.01,0.00,22.4,21.1,00.0,31.2,24.2,11.2,0000.0,0001.10,0004.68,0000.82
2023-01-27 18:02:00,,0818.7,5.01,0.00,22.4,21.1,00.0,31.2,24.2,11.7,0000.0,0001.19,0004.85,0000.88
2023-01-27 18:03:00,,0818.8,4.98,0.00,22.4,21.0,00.0,31.2,24.2,11.3,0000.0,0001.24,0004.84,0000.93
2023-01-27 18:04:00,,0818.8,5.01,0.00,22.4,21.0,00.0,31.2,24.2,11.5,0000.0,0001.28,0004.80,0000.97
2023-01-27 18:05:00,,0818.9,5.00,0.00,22.4,21.0,00.0,31.2,24.2,11.5,0000.0,0001.36,0005.91,0001.02
2023-01-27 18:06:00,,0818.9,5.02,0.00,22.4,21.0,00.0,31.2,24.1,11.5,0000.0,0001.41,0006.40,0001.05
2023-01-27 18:07:00,,0818.9,4.99,0.00,22.4,21.0,00.0,31.2,24.0,11.5,0000.0,0001.47,0006.23,0001.09
2023-01-27 18:08:00,,0818.8,5.00,0.00,22.3,21.0,00.0,31.2,24.1,11.3,0000.0,0001.53,0005.82,0001.13
2023-01-27 18:09:00,,0818.9,5.01,0.00,22.3,20.9,00.0,31.2,24.1,11.3,0000.0,0001.58,0005.94,0001.15
2023-01-27 18:10:00,,0818.8,4.98,0.00,22.3,20.7,00.0,31.2,23.9,11.3,0000.0,0001.57,0005.97,0001.13
2023-01-27 18:11:00,,0818.7,5.00,0.00,22.2,20.6,00.0,31.2,23.9,11.8,0000.0,0001.52,0004.70,0001.11
2023-01-27 18:12:00,,0818.7,5.00,0.00,22.2,20.4,00.0,31.2,23.8,12.1,0000.0,0001.50,0004.13,0001.08
2023-01-27 18:13:00,,0818.6,4.98,0.00,22.1,20.2,00.0,31.1,23.7,11.8,0000.0,0001.42,0003.97,0001.03
2023-01-27 18:14:00,,0818.5,5.01,0.00,22.0,20.0,00.0,31.1,23.5,11.5,0000.0,0001.35,0003.87,0000.97
2023-01-27 18:15:00,,0818.5,5.01,0.00,22.0,19.9,00.0,31.1,23.5,11.7,0000.0,0001.26,0003.75,0000.88
2023-01-27 18:16:00,,0818.6,5.01,0.00,21.9,19.9,00.0,31.0,23.4,11.5,0000.0,0001.16,0002.86,0000.79
2023-01-27 18:17:00,,0818.6,5.00,0.00,21.9,19.9,00.0,31.0,23.4,11.8,0000.0,0001.04,0002.00,0000.72
2023-01-27 18:18:00,,0818.5,5.01,0.00,21.8,19.8,00.0,31.0,23.3,11.9,0000.0,0000.97,0002.19,0000.64
2023-01-27 18:19:00,,0818.5,5.00,0.00,21.8,19.8,00.0,30.9,23.3,12.0,0000.0,0000.90,0002.77,0000.57
2023-01-27 18:20:00,,0818.5,5.00,0.00,21.7,19.8,00.0,30.9,23.3,12.1,0000.0,0000.83,0002.62,0000.52
2023-01-27 18:21:00,,0818.5,5.01,0.00,21.7,19.9,00.0,30.9,23.4,13.0,0000.0,0000.86,0002.64,0000.54
2023-01-27 18:22:00,,0818.5,5.00,0.00,21.8,20.1,00.0,30.8,23.4,12.9,0000.0,0000.96,0002.84,0000.61
2023-01-27 18:23:00,,0818.6,4.99,0.00,21.8,20.3,00.0,30.8,23.5,12.5,0000.0,0001.00,0003.26,0000.66
2023-01-27 18:24:00,,0818.6,5.00,0.00,21.8,20.4,00.0,30.8,23.5,12.4,0000.0,0001.09,0003.74,0000.71
2023-01-27 18:25:00,,0818.5,4.99,0.00,21.8,20.4,00.0,30.8,23.6,12.3,0000.0,0001.20,0004.16,0000.77
2023-01-27 18:26:00,,0818.5,4.99,0.00,21.8,20.5,00.0,30.8,23.6,12.3,0000.0,0001.26,0005.45,0000.84
2023-01-27 18:27:00,,0818.6,5.00,0.00,21.9,20.6,00.0,30.8,23.7,12.2,0000.0,0001.31,0005.51,0000.90
2023-01-27 18:28:00,,0818.5,5.01,0.00,21.9,20.6,00.0,30.8,23.7,12.3,0000.0,0001.42,0005.68,0000.96
2023-01-27 18:29:00,,0818.5,5.00,0.00,21.9,20.6,00.0,30.8,23.7,12.2,0000.0,0001.47,0005.42,0001.02
2023-01-27 18:30:00,,0818.4,5.01,0.00,21.9,20.6,00.0,30.8,23.8,12.2,0000.0,0001.52,0004.52,0001.08
2023-01-27 18:31:00,,0818.4,4.98,0.00,21.9,20.7,00.0,30.8,23.8,12.6,0000.0,0001.58,0004.60,0001.14
2023-01-27 18:32:00,,0818.3,5.01,0.00,21.9,20.7,00.0,30.8,23.8,12.7,0000.0,0001.58,0004.60,0001.16
2023-01-27 18:33:00,,0818.3,4.99,0.00,22.0,20.7,00.0,30.8,23.8,12.4,0000.0,0001.54,0004.56,0001.13
2023-01-27 18:34:00,,0818.2,5.00,0.00,22.0,20.7,00.0,30.8,23.8,12.2,0000.0,0001.55,0004.50,0001.10
2023-01-27 18:35:00,,0818.2,5.01,0.00,22.0,20.7,00.0,30.8,23.9,12.1,0000.0,0001.51,0003.88,0001.08
2023-01-27 18:36:00,,0818.2,5.00,0.00,22.0,20.7,00.0,30.8,23.9,11.9,0000.0,0001.46,0003.74,0001.06
2023-01-27 18:37:00,,0818.0,5.02,0.00,22.0,20.7,00.0,30.8,23.9,12.0,0000.0,0001.48,0002.59,0001.05
2023-01-27 18:38:00,,0818.0,5.01,0.00,22.0,20.7,00.0,30.8,23.9,11.9,0000.0,0001.51,0002.58,0001.05
2023-01-27 18:39:00,,0818.0,5.01,0.00,22.0,20.8,00.0,30.8,23.9,11.8,0000.0,0001.53,0002.57,0001.06
2023-01-27 18:40:00,,0818.0,5.01,0.00,22.1,20.8,00.0,30.8,23.9,11.9,0000.0,0001.53,0002.56,0001.08
2023-01-27 18:41:00,,0818.0,5.00,0.00,22.1,20.8,00.0,30.8,23.9,12.0,0000.0,0001.59,0003.41,0001.11
2023-01-27 18:42:00,,0818.0,5.00,0.00,22.1,20.8,00.0,30.9,23.9,12.0,0000.0,0001.63,0004.18,0001.13
2023-01-27 18:43:00,,0817.9,4.99,0.00,22.1,20.8,00.0,30.9,23.9,12.2,0000.0,0001.71,0004.47,0001.16
2023-01-27 18:44:00,,0817.9,4.99,0.00,22.1,20.8,00.0,30.9,23.9,12.1,0000.0,0001.77,0004.76,0001.18
2023-01-27 18:45:00,,0817.9,5.00,0.00,22.1,20.8,00.0,30.9,24.0,12.0,0000.0,0001.74,0004.69,0001.19
2023-01-27 18:46:00,,0817.8,5.00,0.00,22.1,20.9,00.0,30.9,24.0,12.0,0000.0,0001.75,0004.64,0001.21
2023-01-27 18:47:00,,0817.8,5.00,0.00,22.1,20.9,00.0,30.9,24.0,11.9,0000.0,0001.78,0004.71,0001.23
2023-01-27 18:48:00,,0817.7,5.00,0.00,22.1,20.9,00.0,30.9,24.0,12.0,0000.0,0001.78,0004.73,0001.25
2023-01-27 18:49:00,,0817.6,5.00,0.00,22.2,20.9,00.0,30.9,24.0,12.1,0000.0,0001.77,0005.25,0001.27
2023-01-27 18:50:00,,0817.5,4.99,0.00,22.2,21.0,00.0,30.9,24.0,12.1,0000.0,0001.73,0005.84,0001.27
2023-01-27 18:51:00,,0817.6,5.00,0.00,22.2,21.0,00.0,30.9,24.0,12.3,0000.0,0001.75,0005.94,0001.27
2023-01-27 18:52:00,,0817.6,5.00,0.00,22.2,21.0,00.0,30.9,24.1,12.8,0000.0,0001.72,0005.38,0001.26
2023-01-27 18:53:00,,0817.5,5.00,0.00,22.2,21.1,00.0,31.0,24.1,12.5,0000.0,0001.76,0004.62,0001.26
2023-01-27 18:54:00,,0817.6,5.00,0.00,22.2,21.1,00.0,31.0,24.1,12.5,0000.0,0001.71,0004.43,0001.25
2023-01-27 18:55:00,,0817.6,5.00,0.00,22.2,21.1,00.0,31.0,24.1,12.2,0000.0,0001.66,0004.17,0001.25
2023-01-27 18:56:00,,0817.5,5.00,0.00,22.2,21.1,00.0,31.0,24.1,12.2,0000.0,0001.64,0004.03,0001.25
2023-01-27 18:57:00,,0817.5,4.99,0.00,22.3,21.2,00.0,31.0,24.1,12.1,0000.0,0001.62,0003.99,0001.24
2023-01-27 18:58:00,,0817.4,5.00,0.00,22.3,21.2,00.0,31.0,24.2,11.9,0000.0,0001.59,0003.90,0001.24
2023-01-27 18:59:00,,0817.4,5.00,0.00,22.3,21.2,00.0,31.0,24.2,11.6,0000.0,0001.62,0004.00,0001.25
